Tracking 28125 objects as of 2-Oct-2023
HD Live streaming from Space Station
objects crossing your sky now

THORAD DELTA 1 DEB

Track THORAD DELTA 1 DEB now!
10-day predictions


NORAD ID: 8395
Int'l Code: 1974-089BX
Perigee: 1,325.9 km
Apogee: 1,463.1 km
Inclination: 100.8 °
Period: 113.5 minutes
Semi major axis: 7765 km
RCS: 0.0263 m2 (small)
Launch date: November 15, 1974
Source: United States (US)
Launch site: AIR FORCE WESTERN TEST RANGE (AFWTR)

Note: This is SATELLITE DEBRIS
Your satellite tracking list
Your tracking list is empty




NASA's NSSDC Master Catalog

Two Line Element Set (TLE):
1 08395U 74089BX  23274.79098794  .00001787  00000-0  92328-2 0  9993
2 08395 100.8392 284.8592 0088341  62.4528 113.4377 12.68659183438177
Source of the keplerian elements: AFSPC